Skip Page Navigation
NASA JPL Caltech
NASA Logo - Jet Propulsion Laboratory + View the NASA Portal
+ Near-Earth Object (NEO) Program
Search JPL
JPL Home Earth Solar System Stars & Galaxies Technology
JPL Solar System Dynamics
BODIES ORBITS EPHEMERIDES TOOLS PHYSICAL DATA DISCOVERY FAQ SITE MAP
JPL Small-Body Database Browser
Search: [ help ]  
12764 (1993 VA2)
Classification: Main-belt Asteroid          SPK-ID: 2012764
Ephemeris | Orbit Diagram | Orbital Elements | Physical Parameters | Discovery Circumstances | Close-Approach Data ]

[ show orbit diagram ]
Orbital Elements at Epoch 2457000.5 (2014-Dec-09.0) TDB
Reference: JPL 6 (heliocentric ecliptic J2000)
 Element Value Uncertainty (1-sigma)   Units 
e .08961968119944951 7.2701e-08  
a 3.054644406669067 3.6346e-08 AU
q 2.780888148765703 2.2046e-07 AU
i 11.07695627904333 1.0003e-05 deg
node 41.18881673104148 3.4411e-05 deg
peri 287.3143484466153 6.4408e-05 deg
M 54.03045091375199 5.4833e-05 deg
tp 2456707.831818166963
(2014-Feb-19.33181817)
0.00029674 JED
period 1950.02158371913
5.34
3.4803e-05
9.529e-08
d
yr
n .1846133412089721 3.2949e-09 deg/d
Q 3.32840066457243 3.9603e-08 AU
  Orbit Determination Parameters
   # obs. used (total)      882  
   data-arc span      7660 days (20.97 yr)  
   first obs. used      1993-11-11  
   last obs. used      2014-11-01  
   planetary ephem.      DE431  
   SB-pert. ephem.      SB431-BIG16  
   condition code      0  
   fit RMS      .50758  
   data source      ORB  
   producer      Otto Matic  
   solution date      2014-Nov-10 13:18:11  

Additional Information
 Earth MOID = 1.79718 AU 
 T_jup = 3.201 
[ show covariance matrix ]

Ephemeris | Orbit Diagram | Orbital Elements | Physical Parameters | Discovery Circumstances | Close-Approach Data ]

Physical Parameter Table
Parameter Symbol Value Units Sigma Reference Notes
absolute magnitude H 12.8 mag n/a MPO309251  

12764 (1993 VA2)          Discovered 1993-Nov-11 by Ueda, S., Kaneda, H. at Kushiro (399)
Reference: 19991222/Numbers.arcLast Updated: 2004-04-19

[ show close-approach data ]
Alternate Designations
 1993 VA2 = 1996 GT3 = 1998 VB7 
Ephemeris | Orbit Diagram | Orbital Elements | Physical Parameters | Discovery Circumstances | Close-Approach Data ]
ABOUT SSD CREDITS/AWARDS PRIVACY/COPYRIGHT GLOSSARY LINKS
FirstGov 2014-Nov-24 20:12 UT
(server date/time)  
NASA Home Page
Site Manager:   Donald K. Yeomans
Webmaster  Alan B. Chamberlin